STARLINK-11564, 62913

Orbit data source: Space-Track

STARLINK-11564, 62913 is a payload satellite owned by SpaceX/Seattle (US) in LEO that was launched on Sat, 08 Feb 2025 UTC via an FALCON 9 launch vehicle from the Air Force Eastern Test Range (AFETR). Payload-class satellites include a variety of spacecraft equipped with specific instruments for various scientific and technological missions. These include communications satellites like Starlink; space stations such as the ISS; scientific satellites like the Hubble; Earth observation satellites from companies like Planet Labs, Umbra, and HawkEye 360; GPS; miniature CubeSats for education and research; and military/defense satellites.

Loading next visibility...
Identifier
62913, 2025-027G
Orbit
LEO
Country
Flag of USUS
Related business
Manufacturer
SpaceX/Seattle
Mission
Operational Commercial Communications
Bus & Motor
STARLINK V2MD, Unknown motor
Mass
960 kg wet, ~910 kg dry
Launch date (UTC)
2025-02-08 (9 months ago)
Launch vehicle
FALCON 9
Launch site
Air Force Eastern Test Range (AFETR)
Object type
Payload
Rocket body
Debris
Shape & HBR
Box + 2 Pan, 18.1 m
Radar Cross Section
36.964 m², Large (>1 m²)

Expand to show TLE details & history
Last TLE update: 2 days ago

TLE from 2 days ago
0 STARLINK-11564
1 62913U 25027G   25301.07811098  .00320574  00000-0  23996-2 0  9994
2 62913  42.9989  67.1944 0000767  21.5575 338.5325 15.70909269 42294
Epoch: 2025-10-28T01:52Z
TLE epoch observation values (Epoch: 2025-10-28T01:52:28.788Z)
Latitude
-0.00001°
Longitude
2.40367°
Altitude
355.587 km
Speed
7.698 km/s
True Right ascension
04h 28m 46s
True Declination
0° 00' 00"
Sunlit
Object was in full shadow at epoch
Visualization orbit readout
Latitude
Unknown
Longitude
Unknown
Altitude
Unknown
Speed
Unknown
Apparent Right ascension
Unknown
Apparent Declination
Unknown
Sunlit
N/A
Visualization observer readout
Local Sidereal Time
10:35:01
Azimuth
Unknown
Elevation
Unknown
Doppler factor
Unknown
Orbital elements
Apogee altitude
358.796 km
Perigee altitude
357.762 km
Semi-major axis
6,736.416 km
Eccentricity
0.00008
Inclination
42.9989°
RAAN
67.1944°
Arg. of periapsis
21.5575°
True anomaly
338.52928°
Mean anomaly
338.5325°
Eccentric anomaly
338.53089°
Mean motion
3.92554 °/min
Orbital period
91.71 mins
BSTAR
0.0023996
Loading maneuver chart data...
Computing Atmospheric mass density...
Loading historical data...
Loading historical data...
Loading historical data...
Loading historical data...
Loading historical data...
Loading historical data...
Loading historical data...

Documentation

Showing up to 5 results
|